STARLINK-35252, 65850

Orbit data source: Space-Track

STARLINK-35252, 65850 is a payload satellite owned by SpaceX/Seattle (US) in LEO that was launched on Mon, 29 Sep 2025 UTC via an FALCON 9 launch vehicle from the Air Force Western Test Range (AFWTR). Payload-class satellites include a variety of spacecraft equipped with specific instruments for various scientific and technological missions. These include communications satellites like Starlink; space stations such as the ISS; scientific satellites like the Hubble; Earth observation satellites from companies like Planet Labs, Umbra, and HawkEye 360; GPS; miniature CubeSats for education and research; and military/defense satellites.

Loading next visibility...
Identifier
65850, 2025-221AD
Orbit
LEO
Country
Flag of USUS
Related business
Manufacturer
SpaceX/Seattle
Mission
Operational spacecraft
Bus & Motor
STARLINK V2MO, Unknown motor
Mass
575 kg wet, ~530 kg dry
Launch date (UTC)
2025-09-29 (3 weeks ago)
Launch vehicle
FALCON 9
Launch site
Air Force Western Test Range (AFWTR)
Object type
Payload
Rocket body
Debris
Shape & HBR
Unknown shape, 17.7 m
Radar Cross Section
RCS unknown

Expand to show TLE details & history
Last TLE update: 5 hours ago

TLE from 5 hours ago
0 STARLINK-35252
1 65850U 25221AD  25291.25003472 -.01648930  00000-0 -26593-1 0  9997
2 65850  53.1603  32.5672 0001291  74.0248 103.0886 15.55310610  4273
Epoch: 2025-10-18T06:00Z
TLE epoch observation values (Epoch: 2025-10-18T06:00:02.999Z)
Latitude
2.23133°
Longitude
93.90755°
Altitude
402.096 km
Speed
7.671 km/s
True Right ascension
14h 03m 36s
True Declination
2° 13' 02"
Sunlit
Object was in daylight at epoch
Visualization orbit readout
Latitude
Unknown
Longitude
Unknown
Altitude
Unknown
Speed
Unknown
Apparent Right ascension
Unknown
Apparent Declination
Unknown
Sunlit
N/A
Visualization observer readout
Local Sidereal Time
06:03:38
Azimuth
Unknown
Elevation
Unknown
Doppler factor
Unknown
Orbital elements
Apogee altitude
402.384 km
Perigee altitude
400.634 km
Semi-major axis
6,779.646 km
Eccentricity
0.00013
Inclination
53.1603°
RAAN
32.5672°
Arg. of periapsis
74.0248°
True anomaly
103.10301°
Mean anomaly
103.0886°
Eccentric anomaly
103.0958°
Mean motion
3.88806 °/min
Orbital period
92.59 mins
BSTAR
-0.026593
Loading maneuver chart data...
Computing Atmospheric mass density...
Loading historical data...
Loading historical data...
Loading historical data...
Loading historical data...
Loading historical data...
Loading historical data...
Loading historical data...

Documentation

Showing up to 5 results
|